| time (UTC) | temp F | wind direction | speed MPH | gust MPH | rain 1hr in | rain 24hr in | rain mn in | humidity % | barometer mb |
| 20260510213003 | 83 | 119 | 10.0 | 19.0 | 0.00 | 0.00 | 0.00 | 38 | 990.5 |
| 20260510212502 | 83 | 158 | 7.0 | 22.0 | 0.00 | 0.00 | 0.00 | 40 | 990.6 |
| 20260510212002 | 83 | 331 | 5.0 | 10.0 | 0.00 | 0.00 | 0.00 | 39 | 990.7 |
| 20260510211502 | 83 | 311 | 7.0 | 20.0 | 0.00 | 0.00 | 0.00 | 40 | 990.7 |
| 20260510211002 | 83 | 146 | 12.0 | 22.0 | 0.00 | 0.00 | 0.00 | 39 | 990.8 |
| 20260510210502 | 83 | 161 | 13.0 | 24.0 | 0.00 | 0.00 | 0.00 | 39 | 990.8 |
| 20260510210002 | 83 | 139 | 9.0 | 21.0 | 0.00 | 0.00 | 0.00 | 39 | 990.8 |
| 20260510205503 | 83 | 276 | 7.0 | 19.0 | 0.00 | 0.00 | 0.00 | 40 | 990.8 |
| 20260510205002 | 83 | 137 | 10.0 | 22.0 | 0.00 | 0.00 | 0.00 | 39 | 990.9 |
| 20260510204502 | 83 | 141 | 11.0 | 22.0 | 0.00 | 0.00 | 0.00 | 40 | 990.9 |
| 20260510204002 | 83 | 153 | 14.0 | 21.0 | 0.00 | 0.00 | 0.00 | 41 | 990.9 |
| 20260510203503 | 83 | 155 | 7.0 | 18.0 | 0.00 | 0.00 | 0.00 | 41 | 990.9 |
| 20260510203002 | 83 | 284 | 7.0 | 19.0 | 0.00 | 0.00 | 0.00 | 39 | 990.9 |
| 20260510202502 | 83 | 295 | 7.0 | 18.0 | 0.00 | 0.00 | 0.00 | 40 | 990.9 |
| 20260510202002 | 82 | 176 | 12.0 | 19.0 | 0.00 | 0.00 | 0.00 | 40 | 991.0 |
| 20260510201502 | 82 | 300 | 9.0 | 22.0 | 0.00 | 0.00 | 0.00 | 41 | 991.0 |
| 20260510201003 | 82 | 225 | 10.0 | 27.0 | 0.00 | 0.00 | 0.00 | 40 | 991.1 |
| 20260510200502 | 82 | 299 | 6.0 | 17.0 | 0.00 | 0.00 | 0.00 | 44 | 991.0 |
| 20260510200002 | 82 | 313 | 7.0 | 26.0 | 0.00 | 0.00 | 0.00 | 41 | 991.0 |
| 20260510195502 | 82 | 151 | 14.0 | 32.0 | 0.00 | 0.00 | 0.00 | 40 | 991.0 |
| 20260510195002 | 82 | 160 | 12.0 | 28.0 | 0.00 | 0.00 | 0.00 | 38 | 991.1 |
| 20260510194502 | 82 | 136 | 7.0 | 13.0 | 0.00 | 0.00 | 0.00 | 40 | 991.1 |
| 20260510194002 | 82 | 134 | 6.0 | 11.0 | 0.00 | 0.00 | 0.00 | 39 | 991.0 |
| 20260510193502 | 82 | 135 | 7.0 | 15.0 | 0.00 | 0.00 | 0.00 | 40 | 991.0 |
| 20260510193003 | 82 | 140 | 9.0 | 20.0 | 0.00 | 0.00 | 0.00 | 40 | 991.1 |
| 20260510192502 | 83 | 152 | 12.0 | 26.0 | 0.00 | 0.00 | 0.00 | 37 | 991.1 |
| 20260510192002 | 82 | 299 | 10.0 | 28.0 | 0.00 | 0.00 | 0.00 | 39 | 991.1 |
| 20260510191502 | 83 | 167 | 13.0 | 27.0 | 0.00 | 0.00 | 0.00 | 39 | 991.0 |
| 20260510191003 | 82 | 318 | 6.0 | 13.0 | 0.00 | 0.00 | 0.00 | 38 | 991.1 |
| 20260510190502 | 82 | 318 | 7.0 | 16.0 | 0.00 | 0.00 | 0.00 | 39 | 991.1 |
| 20260510190002 | 82 | 159 | 11.0 | 25.0 | 0.00 | 0.00 | 0.00 | 39 | 991.1 |
| 20260510185502 | 82 | 169 | 16.0 | 28.0 | 0.00 | 0.00 | 0.00 | 38 | 991.1 |
| 20260510185002 | 82 | 319 | 7.0 | 22.0 | 0.00 | 0.00 | 0.00 | 40 | 991.1 |
| 20260510184503 | 81 | 329 | 8.0 | 16.0 | 0.00 | 0.00 | 0.00 | 40 | 991.2 |
| 20260510184002 | 82 | 140 | 12.0 | 29.0 | 0.00 | 0.00 | 0.00 | 40 | 991.2 |
| 20260510183502 | 81 | 170 | 10.0 | 23.0 | 0.00 | 0.00 | 0.00 | 41 | 991.3 |
| 20260510183002 | 81 | 149 | 10.0 | 31.0 | 0.00 | 0.00 | 0.00 | 41 | 991.4 |
| 20260510182503 | 82 | 316 | 4.0 | 8.0 | 0.00 | 0.00 | 0.00 | 41 | 991.4 |
| 20260510182003 | 81 | 151 | 9.0 | 22.0 | 0.00 | 0.00 | 0.00 | 42 | 991.5 |
| 20260510181502 | 81 | 161 | 9.0 | 22.0 | 0.00 | 0.00 | 0.00 | 43 | 991.5 |
| 20260510181002 | 82 | 161 | 13.0 | 21.0 | 0.00 | 0.00 | 0.00 | 43 | 991.5 |
| 20260510180502 | 82 | 152 | 10.0 | 20.0 | 0.00 | 0.00 | 0.00 | 43 | 991.6 |
| 20260510180003 | 81 | 328 | 9.0 | 22.0 | 0.00 | 0.00 | 0.00 | 43 | 991.6 |
| 20260510175503 | 81 | 138 | 8.0 | 17.0 | 0.00 | 0.00 | 0.00 | 41 | 991.6 |
| 20260510175002 | 81 | 138 | 9.0 | 21.0 | 0.00 | 0.00 | 0.00 | 42 | 991.6 |
| 20260510174502 | 81 | 133 | 9.0 | 20.0 | 0.00 | 0.00 | 0.00 | 43 | 991.7 |
| 20260510174002 | 80 | 133 | 11.0 | 19.0 | 0.00 | 0.00 | 0.00 | 44 | 991.7 |
| 20260510173502 | 80 | 139 | 13.0 | 20.0 | 0.00 | 0.00 | 0.00 | 43 | 991.8 |
| 20260510173003 | 80 | 141 | 14.0 | 22.0 | 0.00 | 0.00 | 0.00 | 44 | 991.9 |
| 20260510172502 | 80 | 150 | 16.0 | 25.0 | 0.00 | 0.00 | 0.00 | 46 | 991.9 |
| 20260510172004 | 80 | 170 | 12.0 | 28.0 | 0.00 | 0.00 | 0.00 | 47 | 991.9 |
| 20260510171502 | 80 | 207 | 12.0 | 32.0 | 0.00 | 0.00 | 0.00 | 46 | 992.0 |
| 20260510171002 | 80 | 206 | 13.0 | 55.0 | 0.00 | 0.00 | 0.00 | 45 | 992.1 |
| 20260510170502 | 79 | 162 | 18.0 | 31.0 | 0.00 | 0.00 | 0.00 | 46 | 992.1 |
| 20260510170002 | 79 | 158 | 18.0 | 30.0 | 0.00 | 0.00 | 0.00 | 47 | 992.0 |
| 20260510165503 | 79 | 165 | 17.0 | 39.0 | 0.00 | 0.00 | 0.00 | 48 | 991.9 |
| 20260510165003 | 79 | 158 | 17.0 | 34.0 | 0.00 | 0.00 | 0.00 | 47 | 991.9 |
| 20260510164502 | 79 | 154 | 16.0 | 27.0 | 0.00 | 0.00 | 0.00 | 49 | 991.9 |
| 20260510164003 | 79 | 163 | 16.0 | 29.0 | 0.00 | 0.00 | 0.00 | 49 | 991.9 |
| 20260510163502 | 79 | 323 | 11.0 | 22.0 | 0.00 | 0.00 | 0.00 | 49 | 991.9 |
| 20260510163002 | 78 | 328 | 8.0 | 20.0 | 0.00 | 0.00 | 0.00 | 51 | 991.9 |
| 20260510162503 | 78 | 163 | 10.0 | 20.0 | 0.00 | 0.00 | 0.00 | 51 | 991.8 |
| 20260510162002 | 78 | 176 | 15.0 | 22.0 | 0.00 | 0.00 | 0.00 | 52 | 991.8 |
| 20260510161503 | 78 | 169 | 11.0 | 19.0 | 0.00 | 0.00 | 0.00 | 51 | 991.9 |
| 20260510161003 | 78 | 184 | 10.0 | 19.0 | 0.00 | 0.00 | 0.00 | 55 | 991.9 |
| 20260510160502 | 78 | 159 | 13.0 | 19.0 | 0.00 | 0.00 | 0.00 | 54 | 991.9 |
| 20260510160002 | 77 | 159 | 12.0 | 21.0 | 0.00 | 0.00 | 0.00 | 55 | 991.8 |
| 20260510155502 | 77 | 292 | 6.0 | 17.0 | 0.00 | 0.00 | 0.00 | 55 | 991.8 |
| 20260510155002 | 77 | 196 | 9.0 | 16.0 | 0.00 | 0.00 | 0.00 | 55 | 991.8 |
| 20260510154502 | 76 | 182 | 9.0 | 21.0 | 0.00 | 0.00 | 0.00 | 56 | 991.8 |
| 20260510154002 | 76 | 166 | 12.0 | 19.0 | 0.00 | 0.00 | 0.00 | 58 | 991.7 |
| 20260510153503 | 76 | 164 | 10.0 | 23.0 | 0.00 | 0.00 | 0.00 | 58 | 991.6 |
| 20260510153003 | 76 | 203 | 8.0 | 17.0 | 0.00 | 0.00 | 0.00 | 58 | 991.5 |
| 20260510152502 | 76 | 241 | 6.0 | 18.0 | 0.00 | 0.00 | 0.00 | 59 | 991.5 |
| 20260510152002 | 76 | 174 | 10.0 | 19.0 | 0.00 | 0.00 | 0.00 | 61 | 991.5 |
| 20260510151502 | 75 | 148 | 10.0 | 18.0 | 0.00 | 0.00 | 0.00 | 61 | 991.5 |
| 20260510151002 | 75 | 311 | 5.0 | 12.0 | 0.00 | 0.00 | 0.00 | 61 | 991.5 |
| 20260510150502 | 74 | 174 | 10.0 | 18.0 | 0.00 | 0.00 | 0.00 | 62 | 991.6 |
| 20260510150003 | 75 | 159 | 12.0 | 20.0 | 0.00 | 0.00 | 0.00 | 63 | 991.6 |
| 20260510145502 | 75 | 159 | 12.0 | 19.0 | 0.00 | 0.00 | 0.00 | 64 | 991.6 |
| 20260510145002 | 75 | 147 | 8.0 | 19.0 | 0.00 | 0.00 | 0.00 | 68 | 991.8 |
| 20260510144502 | 74 | 252 | 7.0 | 20.0 | 0.00 | 0.00 | 0.00 | 70 | 991.8 |
| 20260510144002 | 74 | 220 | 9.0 | 17.0 | 0.00 | 0.00 | 0.00 | 68 | 991.8 |
| 20260510143503 | 73 | 301 | 8.0 | 12.0 | 0.00 | 0.00 | 0.00 | 72 | 991.8 |
| 20260510143002 | 72 | 204 | 8.0 | 13.0 | 0.00 | 0.00 | 0.00 | 74 | 991.6 |
| 20260510142502 | 72 | 165 | 8.0 | 13.0 | 0.00 | 0.00 | 0.00 | 74 | 991.6 |
| 20260510142002 | 72 | 270 | 6.0 | 12.0 | 0.00 | 0.00 | 0.00 | 75 | 991.6 |
| 20260510141502 | 71 | 202 | 6.0 | 15.0 | 0.00 | 0.00 | 0.00 | 76 | 991.5 |
| 20260510141003 | 71 | 279 | 5.0 | 10.0 | 0.00 | 0.00 | 0.00 | 77 | 991.4 |
| 20260510140502 | 70 | 315 | 4.0 | 9.0 | 0.00 | 0.00 | 0.00 | 77 | 991.4 |
| 20260510140003 | 70 | 258 | 5.0 | 10.0 | 0.00 | 0.00 | 0.00 | 77 | 991.5 |
| 20260510135003 | 69 | 282 | 5.0 | 13.0 | 0.00 | 0.00 | 0.00 | 80 | 991.7 |
| 20260510134503 | 68 | 148 | 7.0 | 14.0 | 0.00 | 0.00 | 0.00 | 81 | 991.7 |
| 20260510134002 | 68 | 324 | 5.0 | 12.0 | 0.00 | 0.00 | 0.00 | 82 | 991.7 |
| 20260510133502 | 67 | 310 | 5.0 | 10.0 | 0.00 | 0.00 | 0.00 | 84 | 991.8 |
| 20260510133002 | 66 | 284 | 5.0 | 10.0 | 0.00 | 0.00 | 0.00 | 85 | 991.8 |
| 20260510132503 | 65 | 225 | 5.0 | 14.0 | 0.00 | 0.00 | 0.00 | 86 | 991.7 |
| 20260510132003 | 65 | 264 | 3.0 | 8.0 | 0.00 | 0.00 | 0.00 | 87 | 991.7 |
| 20260510131502 | 64 | 273 | 3.0 | 7.0 | 0.00 | 0.00 | 0.00 | 89 | 991.7 |
| 20260510131002 | 63 | 301 | 3.0 | 5.0 | 0.00 | 0.00 | 0.00 | 92 | 991.6 |
| 20260510130502 | 62 | 272 | 5.0 | 10.0 | 0.00 | 0.00 | 0.00 | 93 | 991.5 |
| 20260510130002 | 61 | 299 | 4.0 | 9.0 | 0.00 | 0.00 | 0.00 | 94 | 991.5 |
| 20260510125502 | 61 | 210 | 4.0 | 11.0 | 0.00 | 0.00 | 0.00 | 95 | 991.4 |
| 20260510125002 | 60 | 274 | 3.0 | 7.0 | 0.00 | 0.00 | 0.00 | 96 | 991.3 |
| 20260510124502 | 60 | 250 | 3.0 | 8.0 | 0.00 | 0.00 | 0.00 | 96 | 991.2 |
| 20260510124003 | 60 | 339 | 4.0 | 8.0 | 0.00 | 0.00 | 0.00 | 96 | 991.2 |
| 20260510123502 | 59 | 305 | 3.0 | 7.0 | 0.00 | 0.00 | 0.00 | 96 | 991.2 |
| 20260510123002 | 59 | 236 | 2.0 | 6.0 | 0.00 | 0.00 | 0.00 | 96 | 991.2 |
| 20260510122502 | 59 | 227 | 3.0 | 6.0 | 0.00 | 0.00 | 0.00 | 96 | 991.2 |
| 20260510122002 | 59 | 285 | 4.0 | 10.0 | 0.00 | 0.00 | 0.00 | 97 | 991.2 |
| 20260510121502 | 58 | 227 | 3.0 | 6.0 | 0.00 | 0.00 | 0.00 | 97 | 991.1 |
| 20260510121002 | 58 | 170 | 2.0 | 7.0 | 0.00 | 0.00 | 0.00 | 97 | 991.0 |
| 20260510120502 | 57 | 199 | 3.0 | 5.0 | 0.00 | 0.00 | 0.00 | 97 | 990.8 |
| 20260510120002 | 57 | 285 | 2.0 | 5.0 | 0.00 | 0.00 | 0.00 | 97 | 990.7 |
| 20260510115502 | 56 | 197 | 3.0 | 6.0 | 0.00 | 0.00 | 0.00 | 97 | 990.5 |
| 20260510115002 | 56 | 193 | 3.0 | 7.0 | 0.00 | 0.00 | 0.00 | 97 | 990.4 |
| 20260510114502 | 56 | 216 | 3.0 | 5.0 | 0.00 | 0.00 | 0.00 | 97 | 990.4 |
| 20260510114002 | 56 | 254 | 2.0 | 5.0 | 0.00 | 0.00 | 0.00 | 97 | 990.3 |
| 20260510113503 | 55 | 243 | 2.0 | 4.0 | 0.00 | 0.00 | 0.00 | 97 | 990.1 |
| 20260510113002 | 55 | 176 | 2.0 | 6.0 | 0.00 | 0.00 | 0.00 | 97 | 990.1 |
| 20260510112502 | 55 | 180 | 3.0 | 6.0 | 0.00 | 0.00 | 0.00 | 97 | 990.0 |
| 20260510112003 | 55 | 181 | 3.0 | 5.0 | 0.00 | 0.00 | 0.00 | 96 | 989.8 |
| 20260510111502 | 55 | 178 | 3.0 | 5.0 | 0.00 | 0.00 | 0.00 | 96 | 989.7 |
| 20260510111002 | 55 | 178 | 3.0 | 6.0 | 0.00 | 0.00 | 0.00 | 96 | 989.6 |
| 20260510110503 | 55 | 170 | 3.0 | 5.0 | 0.00 | 0.00 | 0.00 | 96 | 989.6 |
| 20260510110002 | 55 | 178 | 3.0 | 5.0 | 0.00 | 0.00 | 0.00 | 96 | 989.5 |
| 20260510105502 | 55 | 183 | 2.0 | 5.0 | 0.00 | 0.00 | 0.00 | 96 | 989.4 |
| 20260510105002 | 55 | 176 | 2.0 | 4.0 | 0.00 | 0.00 | 0.00 | 96 | 989.4 |
| 20260510104502 | 55 | 189 | 3.0 | 5.0 | 0.00 | 0.00 | 0.00 | 96 | 989.3 |
| 20260510104003 | 55 | 183 | 2.0 | 5.0 | 0.00 | 0.00 | 0.00 | 96 | 989.3 |
| 20260510103502 | 55 | 211 | 2.0 | 5.0 | 0.00 | 0.00 | 0.00 | 96 | 989.2 |
| 20260510103002 | 55 | 199 | 3.0 | 6.0 | 0.00 | 0.00 | 0.00 | 96 | 989.2 |
| 20260510102502 | 55 | 178 | 3.0 | 5.0 | 0.00 | 0.00 | 0.00 | 96 | 989.2 |
| 20260510102002 | 55 | 223 | 2.0 | 4.0 | 0.00 | 0.00 | 0.00 | 96 | 989.1 |
| 20260510101502 | 55 | 175 | 2.0 | 4.0 | 0.00 | 0.00 | 0.00 | 96 | 989.1 |
| 20260510101003 | 55 | 215 | 2.0 | 5.0 | 0.00 | 0.00 | 0.00 | 96 | 989.1 |
| 20260510100502 | 55 | 254 | 2.0 | 4.0 | 0.00 | 0.00 | 0.00 | 96 | 989.1 |
| 20260510100003 | 55 | 289 | 2.0 | 3.0 | 0.00 | 0.00 | 0.00 | 96 | 989.1 |
| 20260510095502 | 55 | 175 | 2.0 | 5.0 | 0.00 | 0.00 | 0.00 | 96 | 989.2 |
| 20260510095002 | 55 | 175 | 3.0 | 5.0 | 0.00 | 0.00 | 0.00 | 96 | 989.2 |
| 20260510094503 | 54 | 181 | 3.0 | 7.0 | 0.00 | 0.00 | 0.00 | 96 | 989.1 |
| 20260510094002 | 54 | 174 | 2.0 | 4.0 | 0.00 | 0.00 | 0.00 | 96 | 989.0 |
| 20260510093502 | 54 | 209 | 2.0 | 4.0 | 0.00 | 0.00 | 0.00 | 96 | 989.0 |
| 20260510093002 | 54 | 163 | 2.0 | 5.0 | 0.00 | 0.00 | 0.00 | 96 | 989.0 |
| 20260510092502 | 54 | 170 | 3.0 | 5.0 | 0.00 | 0.00 | 0.00 | 96 | 988.9 |
| 20260510092002 | 54 | 194 | 2.0 | 4.0 | 0.00 | 0.00 | 0.00 | 96 | 988.9 |
| 20260510091502 | 54 | 172 | 3.0 | 5.0 | 0.00 | 0.00 | 0.00 | 96 | 988.9 |
| 20260510091003 | 54 | 187 | 2.0 | 4.0 | 0.00 | 0.00 | 0.00 | 96 | 988.8 |
| 20260510090502 | 54 | 173 | 2.0 | 4.0 | 0.00 | 0.00 | 0.00 | 96 | 988.8 |
| 20260510090002 | 54 | 190 | 2.0 | 4.0 | 0.00 | 0.00 | 0.00 | 96 | 988.9 |
| 20260510085502 | 54 | 223 | 2.0 | 4.0 | 0.00 | 0.00 | 0.00 | 96 | 988.8 |
| 20260510085002 | 54 | 172 | 3.0 | 5.0 | 0.00 | 0.00 | 0.00 | 96 | 988.8 |
| 20260510084502 | 53 | 201 | 2.0 | 4.0 | 0.00 | 0.00 | 0.00 | 96 | 988.7 |
| 20260510084002 | 53 | 188 | 2.0 | 5.0 | 0.00 | 0.00 | 0.00 | 97 | 988.8 |
| 20260510083502 | 53 | 183 | 3.0 | 6.0 | 0.00 | 0.00 | 0.00 | 97 | 988.8 |
| 20260510083002 | 52 | 186 | 3.0 | 6.0 | 0.00 | 0.00 | 0.00 | 96 | 988.8 |
| 20260510082502 | 52 | 167 | 2.0 | 5.0 | 0.00 | 0.00 | 0.00 | 97 | 988.8 |
| 20260510082002 | 52 | 166 | 3.0 | 6.0 | 0.00 | 0.00 | 0.00 | 96 | 988.7 |
| 20260510081503 | 52 | 189 | 2.0 | 5.0 | 0.00 | 0.00 | 0.00 | 96 | 988.6 |
| 20260510081003 | 52 | 178 | 3.0 | 5.0 | 0.00 | 0.00 | 0.00 | 96 | 988.7 |
| 20260510080502 | 51 | 172 | 3.0 | 5.0 | 0.00 | 0.00 | 0.00 | 96 | 988.7 |
| 20260510080003 | 51 | 175 | 3.0 | 5.0 | 0.00 | 0.00 | 0.00 | 96 | 988.6 |
| 20260510075502 | 51 | 183 | 3.0 | 5.0 | 0.00 | 0.00 | 0.00 | 96 | 988.5 |
| 20260510075002 | 51 | 181 | 2.0 | 5.0 | 0.00 | 0.00 | 0.00 | 96 | 988.4 |
| 20260510074503 | 51 | 181 | 2.0 | 4.0 | 0.00 | 0.00 | 0.00 | 96 | 988.4 |
| 20260510074002 | 51 | 185 | 2.0 | 5.0 | 0.00 | 0.00 | 0.00 | 96 | 988.2 |
| 20260510073502 | 51 | 184 | 2.0 | 4.0 | 0.00 | 0.00 | 0.00 | 96 | 988.2 |
| 20260510073002 | 51 | 183 | 2.0 | 4.0 | 0.00 | 0.00 | 0.00 | 96 | 988.1 |
| 20260510072502 | 51 | 196 | 2.0 | 4.0 | 0.00 | 0.00 | 0.00 | 96 | 988.1 |
| 20260510072002 | 51 | 212 | 1.0 | 4.0 | 0.00 | 0.00 | 0.00 | 96 | 988.1 |
| 20260510071502 | 51 | 232 | 1.0 | 3.0 | 0.00 | 0.00 | 0.00 | 96 | 988.0 |
| 20260510071002 | 51 | 191 | 2.0 | 4.0 | 0.00 | 0.00 | 0.00 | 96 | 987.9 |
| 20260510070503 | 51 | 193 | 2.0 | 4.0 | 0.00 | 0.00 | 0.00 | 96 | 987.9 |
| 20260510070003 | 51 | 186 | 2.0 | 4.0 | 0.00 | 0.00 | 0.00 | 96 | 988.0 |
| 20260510065502 | 51 | 176 | 2.0 | 4.0 | 0.00 | 0.00 | 0.00 | 96 | 988.0 |
| 20260510065003 | 51 | 180 | 3.0 | 4.0 | 0.00 | 0.00 | 0.00 | 96 | 988.0 |
| 20260510064503 | 51 | 188 | 3.0 | 5.0 | 0.00 | 0.00 | 0.00 | 96 | 987.9 |
| 20260510064002 | 51 | 212 | 1.0 | 5.0 | 0.00 | 0.00 | 0.00 | 96 | 987.9 |
| 20260510063503 | 51 | 218 | 2.0 | 4.0 | 0.00 | 0.00 | 0.00 | 96 | 987.9 |
| 20260510063003 | 51 | 198 | 3.0 | 6.0 | 0.00 | 0.00 | 0.00 | 96 | 987.9 |
| 20260510062502 | 51 | 194 | 3.0 | 4.0 | 0.00 | 0.00 | 0.00 | 96 | 987.9 |
| 20260510062003 | 51 | 186 | 4.0 | 6.0 | 0.00 | 0.00 | 0.00 | 96 | 987.9 |
| 20260510061502 | 52 | 185 | 4.0 | 6.0 | 0.00 | 0.00 | 0.00 | 96 | 988.0 |
| 20260510061002 | 52 | 184 | 4.0 | 5.0 | 0.00 | 0.00 | 0.00 | 95 | 988.0 |
| 20260510060502 | 52 | 194 | 4.0 | 5.0 | 0.00 | 0.00 | 0.00 | 95 | 988.0 |
| 20260510060002 | 52 | 227 | 3.0 | 5.0 | 0.00 | 0.00 | 0.00 | 95 | 988.0 |
| 20260510055503 | 52 | 185 | 3.0 | 6.0 | 0.00 | 0.00 | 0.00 | 95 | 988.0 |
| 20260510055002 | 52 | 169 | 4.0 | 6.0 | 0.00 | 0.00 | 0.00 | 95 | 988.0 |
| 20260510054502 | 52 | 180 | 4.0 | 7.0 | 0.00 | 0.00 | 0.00 | 95 | 988.0 |
| 20260510054002 | 52 | 187 | 4.0 | 6.0 | 0.00 | 0.00 | 0.00 | 95 | 988.0 |
| 20260510053502 | 52 | 195 | 4.0 | 7.0 | 0.00 | 0.00 | 0.00 | 95 | 988.0 |
| 20260510053002 | 52 | 195 | 3.0 | 4.0 | 0.00 | 0.00 | 0.00 | 95 | 987.9 |
| 20260510052502 | 52 | 206 | 2.0 | 5.0 | 0.00 | 0.00 | 0.00 | 95 | 987.9 |
| 20260510052003 | 52 | 178 | 4.0 | 6.0 | 0.00 | 0.00 | 0.00 | 95 | 987.9 |
| 20260510051502 | 52 | 171 | 5.0 | 7.0 | 0.00 | 0.00 | 0.00 | 95 | 988.0 |
| 20260510051002 | 52 | 184 | 4.0 | 6.0 | 0.00 | 0.00 | 0.00 | 95 | 988.0 |
| 20260510050502 | 52 | 199 | 2.0 | 5.0 | 0.00 | 0.00 | 0.00 | 94 | 987.9 |
| 20260510050002 | 53 | 188 | 3.0 | 5.0 | 0.00 | 0.00 | 0.00 | 94 | 987.9 |
| 20260510045502 | 53 | 196 | 4.0 | 6.0 | 0.00 | 0.00 | 0.00 | 94 | 987.9 |
| 20260510045002 | 53 | 179 | 4.0 | 5.0 | 0.00 | 0.00 | 0.00 | 94 | 987.9 |
| 20260510044502 | 53 | 166 | 4.0 | 7.0 | 0.00 | 0.00 | 0.00 | 94 | 987.9 |
| 20260510044003 | 53 | 186 | 4.0 | 6.0 | 0.00 | 0.00 | 0.00 | 94 | 987.9 |
| 20260510043502 | 53 | 172 | 4.0 | 6.0 | 0.00 | 0.00 | 0.00 | 94 | 988.0 |
| 20260510043003 | 53 | 188 | 3.0 | 5.0 | 0.00 | 0.00 | 0.00 | 94 | 987.9 |
| 20260510042502 | 53 | 182 | 4.0 | 5.0 | 0.00 | 0.00 | 0.00 | 94 | 987.9 |
| 20260510042002 | 53 | 175 | 4.0 | 5.0 | 0.00 | 0.00 | 0.00 | 93 | 987.9 |
| 20260510041502 | 53 | 156 | 4.0 | 5.0 | 0.00 | 0.00 | 0.00 | 93 | 987.9 |
| 20260510041002 | 53 | 177 | 4.0 | 5.0 | 0.00 | 0.00 | 0.00 | 93 | 987.9 |
| 20260510040502 | 54 | 161 | 4.0 | 5.0 | 0.00 | 0.00 | 0.00 | 93 | 987.9 |
| 20260510040003 | 54 | 181 | 4.0 | 5.0 | 0.00 | 0.00 | 0.00 | 93 | 988.0 |
| 20260510035502 | 54 | 192 | 4.0 | 5.0 | 0.00 | 0.00 | 0.00 | 92 | 987.9 |
| 20260510035002 | 54 | 157 | 4.0 | 5.0 | 0.00 | 0.00 | 0.00 | 92 | 988.0 |
| 20260510034503 | 54 | 165 | 4.0 | 6.0 | 0.00 | 0.00 | 0.00 | 92 | 988.0 |
| 20260510034002 | 54 | 158 | 4.0 | 6.0 | 0.00 | 0.00 | 0.00 | 91 | 988.0 |
| 20260510033502 | 54 | 168 | 4.0 | 7.0 | 0.00 | 0.00 | 0.00 | 91 | 988.0 |
| 20260510033002 | 54 | 180 | 4.0 | 6.0 | 0.00 | 0.00 | 0.00 | 91 | 987.9 |
| 20260510032503 | 55 | 185 | 3.0 | 5.0 | 0.00 | 0.00 | 0.00 | 91 | 987.9 |
| 20260510032003 | 55 | 160 | 4.0 | 5.0 | 0.00 | 0.00 | 0.00 | 90 | 987.9 |
| 20260510031502 | 55 | 168 | 3.0 | 6.0 | 0.00 | 0.00 | 0.00 | 90 | 987.8 |
| 20260510031002 | 55 | 156 | 3.0 | 6.0 | 0.00 | 0.00 | 0.00 | 90 | 987.8 |
| 20260510030502 | 55 | 166 | 3.0 | 5.0 | 0.00 | 0.00 | 0.00 | 90 | 987.7 |
| 20260510030003 | 56 | 167 | 2.0 | 4.0 | 0.00 | 0.00 | 0.00 | 89 | 987.7 |
| 20260510025502 | 56 | 172 | 2.0 | 4.0 | 0.00 | 0.00 | 0.00 | 89 | 987.6 |
| 20260510025002 | 56 | 169 | 3.0 | 4.0 | 0.00 | 0.00 | 0.00 | 88 | 987.6 |
| 20260510024502 | 56 | 163 | 3.0 | 5.0 | 0.00 | 0.00 | 0.00 | 88 | 987.5 |
| 20260510024003 | 57 | 171 | 4.0 | 7.0 | 0.00 | 0.00 | 0.00 | 88 | 987.5 |
| 20260510023502 | 57 | 176 | 4.0 | 5.0 | 0.00 | 0.00 | 0.00 | 87 | 987.4 |
| 20260510023003 | 57 | 186 | 4.0 | 5.0 | 0.00 | 0.00 | 0.00 | 87 | 987.3 |
| 20260510022502 | 57 | 181 | 3.0 | 6.0 | 0.00 | 0.00 | 0.00 | 86 | 987.3 |
| 20260510022002 | 58 | 183 | 4.0 | 9.0 | 0.00 | 0.00 | 0.00 | 85 | 987.2 |
| 20260510021503 | 58 | 175 | 5.0 | 6.0 | 0.00 | 0.00 | 0.00 | 85 | 987.2 |
| 20260510021002 | 58 | 180 | 4.0 | 6.0 | 0.00 | 0.00 | 0.00 | 86 | 987.1 |
| 20260510020502 | 59 | 181 | 3.0 | 5.0 | 0.00 | 0.00 | 0.00 | 85 | 987.0 |
| 20260510020002 | 59 | 183 | 3.0 | 7.0 | 0.00 | 0.00 | 0.00 | 84 | 986.9 |
| 20260510015503 | 59 | 185 | 4.0 | 7.0 | 0.00 | 0.00 | 0.00 | 83 | 986.9 |
| 20260510015002 | 60 | 157 | 5.0 | 7.0 | 0.00 | 0.00 | 0.00 | 83 | 986.8 |
| 20260510014502 | 60 | 151 | 5.0 | 6.0 | 0.00 | 0.00 | 0.00 | 82 | 986.7 |
| 20260510014002 | 60 | 156 | 5.0 | 6.0 | 0.00 | 0.00 | 0.00 | 81 | 986.7 |
| 20260510013502 | 61 | 161 | 4.0 | 6.0 | 0.00 | 0.00 | 0.00 | 80 | 986.6 |
| 20260510013002 | 61 | 161 | 4.0 | 7.0 | 0.00 | 0.00 | 0.00 | 80 | 986.5 |
| 20260510012503 | 62 | 160 | 3.0 | 5.0 | 0.00 | 0.00 | 0.00 | 79 | 986.4 |
| 20260510012002 | 62 | 159 | 4.0 | 5.0 | 0.00 | 0.00 | 0.00 | 78 | 986.3 |
| 20260510011502 | 63 | 169 | 4.0 | 5.0 | 0.00 | 0.00 | 0.00 | 77 | 986.2 |
| 20260510011002 | 63 | 168 | 4.0 | 5.0 | 0.00 | 0.00 | 0.00 | 76 | 986.1 |
| 20260510010502 | 64 | 173 | 4.0 | 5.0 | 0.00 | 0.00 | 0.00 | 75 | 986.0 |
| 20260510010003 | 64 | 174 | 4.0 | 5.0 | 0.00 | 0.00 | 0.00 | 74 | 986.0 |
| 20260510005502 | 65 | 168 | 5.0 | 7.0 | 0.00 | 0.00 | 0.00 | 72 | 986.0 |
| 20260510005002 | 66 | 167 | 5.0 | 8.0 | 0.00 | 0.00 | 0.00 | 71 | 986.0 |
| 20260510004502 | 66 | 169 | 5.0 | 8.0 | 0.00 | 0.00 | 0.00 | 70 | 986.0 |
| 20260510004003 | 67 | 165 | 5.0 | 7.0 | 0.00 | 0.00 | 0.00 | 69 | 986.0 |
| 20260510003502 | 68 | 162 | 5.0 | 8.0 | 0.00 | 0.00 | 0.00 | 69 | 986.0 |
| 20260510003003 | 68 | 164 | 5.0 | 7.0 | 0.00 | 0.00 | 0.00 | 67 | 986.0 |
| 20260510002502 | 69 | 162 | 5.0 | 6.0 | 0.00 | 0.00 | 0.00 | 64 | 985.9 |
| 20260510002002 | 70 | 165 | 5.0 | 7.0 | 0.00 | 0.00 | 0.00 | 62 | 985.9 |
| 20260510001502 | 71 | 166 | 5.0 | 7.0 | 0.00 | 0.00 | 0.00 | 60 | 985.9 |
| 20260510001002 | 72 | 166 | 6.0 | 7.0 | 0.00 | 0.00 | 0.00 | 58 | 985.9 |
| 20260510000503 | 73 | 166 | 6.0 | 9.0 | 0.00 | 0.00 | 0.00 | 55 | 986.0 |
| 20260510000002 | 74 | 190 | 6.0 | 8.0 | 0.00 | 0.00 | 0.00 | 54 | 986.0 |
| 20260509235502 | 75 | 151 | 7.0 | 9.0 | 0.00 | 0.00 | 0.00 | 52 | 986.0 |
| 20260509235002 | 77 | 163 | 7.0 | 10.0 | 0.00 | 0.00 | 0.00 | 51 | 986.0 |
| 20260509234503 | 78 | 156 | 8.0 | 10.0 | 0.00 | 0.00 | 0.00 | 47 | 986.1 |
| 20260509234002 | 78 | 157 | 7.0 | 11.0 | 0.00 | 0.00 | 0.00 | 47 | 986.1 |
| 20260509233502 | 79 | 211 | 6.0 | 11.0 | 0.00 | 0.00 | 0.00 | 45 | 986.0 |
| 20260509233002 | 79 | 152 | 9.0 | 12.0 | 0.00 | 0.00 | 0.00 | 45 | 986.0 |
| 20260509232503 | 80 | 149 | 8.0 | 12.0 | 0.00 | 0.00 | 0.00 | 43 | 986.1 |
| 20260509232002 | 80 | 287 | 6.0 | 12.0 | 0.00 | 0.00 | 0.00 | 41 | 986.1 |
| 20260509231502 | 80 | 173 | 9.0 | 12.0 | 0.00 | 0.00 | 0.00 | 43 | 986.1 |
| 20260509231002 | 79 | 180 | 9.0 | 15.0 | 0.00 | 0.00 | 0.00 | 43 | 986.1 |
| 20260509230502 | 79 | 166 | 9.0 | 17.0 | 0.00 | 0.00 | 0.00 | 40 | 986.1 |
| 20260509230002 | 79 | 311 | 7.0 | 15.0 | 0.00 | 0.00 | 0.00 | 40 | 986.1 |
| 20260509225502 | 79 | 169 | 11.0 | 17.0 | 0.00 | 0.00 | 0.00 | 40 | 986.1 |
| 20260509225002 | 79 | 151 | 11.0 | 17.0 | 0.00 | 0.00 | 0.00 | 41 | 986.0 |
| 20260509224503 | 79 | 311 | 5.0 | 11.0 | 0.00 | 0.00 | 0.00 | 39 | 986.0 |
| 20260509224002 | 79 | 247 | 7.0 | 16.0 | 0.00 | 0.00 | 0.00 | 42 | 986.1 |
| 20260509223502 | 79 | 311 | 5.0 | 13.0 | 0.00 | 0.00 | 0.00 | 43 | 986.0 |
| 20260509223002 | 79 | 320 | 4.0 | 13.0 | 0.00 | 0.00 | 0.00 | 42 | 985.9 |
| 20260509222502 | 78 | 263 | 10.0 | 16.0 | 0.00 | 0.00 | 0.00 | 41 | 985.9 |
| 20260509222002 | 79 | 161 | 13.0 | 19.0 | 0.00 | 0.00 | 0.00 | 43 | 986.0 |
| 20260509221503 | 79 | 151 | 14.0 | 20.0 | 0.00 | 0.00 | 0.00 | 45 | 986.0 |
| 20260509221002 | 79 | 160 | 17.0 | 22.0 | 0.00 | 0.00 | 0.00 | 43 | 986.0 |
| 20260509220502 | 80 | 143 | 11.0 | 21.0 | 0.00 | 0.00 | 0.00 | 42 | 986.1 |
| 20260509220002 | 80 | 157 | 11.0 | 27.0 | 0.00 | 0.00 | 0.00 | 41 | 986.0 |
| 20260509215503 | 80 | 147 | 11.0 | 21.0 | 0.00 | 0.00 | 0.00 | 41 | 986.0 |
| 20260509215002 | 81 | 164 | 13.0 | 23.0 | 0.00 | 0.00 | 0.00 | 41 | 986.0 |
| 20260509214502 | 81 | 144 | 9.0 | 19.0 | 0.00 | 0.00 | 0.00 | 43 | 986.0 |
| 20260509214002 | 80 | 324 | 5.0 | 16.0 | 0.00 | 0.00 | 0.00 | 45 | 986.0 |
| 20260509213502 | 80 | 27 | 6.0 | 16.0 | 0.00 | 0.00 | 0.00 | 44 | 986.0 |